Regional Weather Roundup
Issued by NWS

Home | Current Version | Previous Version | Graphics & Text | Print | Product List | Glossary On
Versions: 1 2 3 4 5 6 7 8 9 10 11 12 13 14 15 16 17 18 19 20 21 22 23 24 25 26 27 28 29 30 31 32 33 34 35 36 37 38 39 40 41 42 43 44 45 46 47 48 49 50
000
ASUS45 KCYS 271610
RWRWY

WYOMING REGIONAL WEATHER ROUNDUP
NATIONAL WEATHER SERVICE CHEYENNE WY
1000 AM MDT WED MAY 27 2015

NOTE:  "FAIR" INDICATES FEW OR NO CLOUDS BELOW 12,000 FEET
WITH NO SIGNIFICANT WEATHER AND/OR OBSTRUCTIONS TO VISIBILITY.

WYZ001-271700-
YELLOWSTONE NATIONAL PARK

CITY           SKY/WX    TMP DP  RH WIND       PRES   REMARKS
LK YELLOWSTONE   N/A     43  39  86 VRB3      30.17S
W YELLOWSTONE  NOT AVBL

$$
WYZ002>013-054>058-071-098>099-271700-
NORTHERN WYOMING

CITY           SKY/WX    TMP DP  RH WIND       PRES   REMARKS
JACKSON        PTSUNNY   48  46  93 CALM      30.13S
CODY           FAIR      57  48  72 NE5       30.03S
GREYBULL       CLOUDY    60  51  72 CALM      30.01S
WORLAND        FAIR      60  51  72 CALM      30.01S
SHERIDAN       CLOUDY    60  50  69 NW7       30.00F
BUFFALO        CLOUDY    57  47  69 N8        30.02S
GILLETTE       PTSUNNY   62  51  67 S9        29.99F
HULETT         CLOUDY    63  48  59 SW12      30.01R
NEWCASTLE      FAIR      61  48  63 S9        30.03S

$$
WYZ014>020-022>026-101>103-271700-
CENTRAL WYOMING

CITY           SKY/WX    TMP DP  RH WIND       PRES   REMARKS
BIG PINEY      FAIR      52  38  58 SE3       30.16F
PINEDALE       PTSUNNY   50  36  57 NW6       30.17S
DUBOIS         PTSUNNY   52  34  50 N13G21    30.11S
LANDER         FAIR      60  45  57 S3        30.06R
RIVERTON       FAIR      58  47  66 VRB3      30.07S
CASPER         FAIR      61  47  59 SW20G28   30.04F
DOUGLAS        FAIR      63  48  58 NW5       30.04S

$$
WYZ021-027>030-104>119-271700-
SOUTHERN WYOMING

CITY           SKY/WX    TMP DP  RH WIND       PRES   REMARKS
EVANSTON       CLOUDY    54  41  61 CALM      30.16F
KEMMERER       PTSUNNY   50  41  71 CALM      30.18S
FORT BRIDGER   MOSUNNY   54  41  62 CALM      30.20S
ROCK SPRINGS   FAIR      53  42  66 SW17      30.17R
RAWLINS        PTSUNNY   53  42  66 W12       30.16S
SARATOGA       CLOUDY    50  43  76 SW12      30.19F
LARAMIE        PTSUNNY   54  39  57 W9        30.15S
CHEYENNE       FAIR      64  39  39 W17       30.10S
TORRINGTON     FAIR      63  53  70 VRB3      30.04S
PINE BLUFFS    FAIR      63  45  51 CALM      30.08S

$$


USA.gov is the U.S. government's official web portal to all federal, state and local government web resources and services.